Time,TemperatureF,DewpointF,PressureIn,WindDirection,WindDirectionDegrees,WindSpeedMPH,WindSpeedGustMPH,Humidity,HourlyPrecipIn,Conditions,Clouds,dailyrainin,SoftwareType,DateUTC
2013-07-01 00:01:00,60.0,55.0,29.84,SW,217,0.0,1.0,83,-99.99,,,-99.99,,2013-07-01 07:01:00,
2013-07-01 00:11:00,60.0,55.0,29.84,SW,217,0.0,1.0,83,-99.99,,,-99.99,,2013-07-01 07:11:00,
2013-07-01 00:22:00,60.0,55.0,29.84,SW,217,0.0,1.0,83,-99.99,,,-99.99,,2013-07-01 07:22:00,
2013-07-01 00:33:00,60.0,55.0,29.84,SW,222,1.0,3.0,84,-99.99,,,-99.99,,2013-07-01 07:33:00,
2013-07-01 00:43:00,59.0,54.0,29.84,SW,223,1.0,3.0,84,-99.99,,,-99.99,,2013-07-01 07:43:00,
2013-07-01 00:53:00,59.0,54.0,29.84,WSW,241,0.0,3.0,85,-99.99,,,-99.99,,2013-07-01 07:53:00,
2013-07-01 01:01:00,59.0,54.0,29.84,WSW,241,0.0,3.0,85,-99.99,,,-99.99,,2013-07-01 08:01:00,
2013-07-01 01:11:00,59.0,54.0,29.84,WSW,241,0.0,3.0,85,-99.99,,,-99.99,,2013-07-01 08:11:00,
2013-07-01 01:22:00,58.0,54.0,29.84,WSW,246,0.0,3.0,87,-99.99,,,-99.99,,2013-07-01 08:22:00,
2013-07-01 01:32:00,58.0,54.0,29.84,WSW,246,0.0,3.0,87,-99.99,,,-99.99,,2013-07-01 08:32:00,
2013-07-01 01:43:00,58.0,54.0,29.84,WSW,246,0.0,3.0,87,-99.99,,,-99.99,,2013-07-01 08:43:00,
2013-07-01 01:52:00,58.0,54.0,29.84,WSW,246,0.0,3.0,87,-99.99,,,-99.99,,2013-07-01 08:52:00,
2013-07-01 02:01:00,58.0,54.0,29.84,WSW,246,0.0,3.0,87,-99.99,,,-99.99,,2013-07-01 09:01:00,
2013-07-01 02:11:00,57.0,54.0,29.83,WSW,250,0.0,0.0,89,-99.99,,,-99.99,,2013-07-01 09:11:00,
2013-07-01 02:22:00,57.0,54.0,29.83,WSW,250,0.0,1.0,89,-99.99,,,-99.99,,2013-07-01 09:22:00,
2013-07-01 02:33:00,57.0,54.0,29.83,WSW,250,0.0,1.0,89,-99.99,,,-99.99,,2013-07-01 09:33:00,
2013-07-01 02:43:00,57.0,54.0,29.83,WSW,250,0.0,1.0,89,-99.99,,,-99.99,,2013-07-01 09:43:00,
2013-07-01 02:53:00,57.0,54.0,29.83,WSW,250,0.0,1.0,89,-99.99,,,-99.99,,2013-07-01 09:53:00,
2013-07-01 03:03:00,57.0,54.0,29.82,WSW,250,0.0,1.0,90,-99.99,,,-99.99,,2013-07-01 10:03:00,
2013-07-01 03:11:00,57.0,54.0,29.82,WSW,250,0.0,1.0,90,-99.99,,,-99.99,,2013-07-01 10:11:00,
2013-07-01 03:22:00,57.0,54.0,29.82,WSW,250,0.0,1.0,91,-99.99,,,-99.99,,2013-07-01 10:22:00,
2013-07-01 03:33:00,57.0,54.0,29.82,WSW,250,0.0,1.0,91,-99.99,,,-99.99,,2013-07-01 10:33:00,
2013-07-01 03:42:00,57.0,54.0,29.82,WSW,250,0.0,1.0,91,-99.99,,,-99.99,,2013-07-01 10:42:00,
2013-07-01 03:52:00,56.0,53.0,29.83,WSW,250,0.0,0.0,91,-99.99,,,-99.99,,2013-07-01 10:52:00,
2013-07-01 04:02:00,56.0,53.0,29.83,WSW,250,0.0,0.0,91,-99.99,,,-99.99,,2013-07-01 11:02:00,
2013-07-01 04:11:00,56.0,53.0,29.83,WSW,250,0.0,0.0,91,-99.99,,,-99.99,,2013-07-01 11:11:00,
2013-07-01 04:22:00,56.0,53.0,29.83,WSW,250,0.0,0.0,91,-99.99,,,-99.99,,2013-07-01 11:22:00,
2013-07-01 04:33:00,56.0,53.0,29.83,WSW,250,0.0,0.0,91,-99.99,,,-99.99,,2013-07-01 11:33:00,
2013-07-01 04:43:00,56.0,53.0,29.82,WSW,250,0.0,0.0,91,-99.99,,,-99.99,,2013-07-01 11:43:00,
2013-07-01 04:52:00,56.0,53.0,29.83,WSW,250,0.0,0.0,91,-99.99,,,-99.99,,2013-07-01 11:52:00,
2013-07-01 05:01:00,56.0,53.0,29.83,WSW,250,0.0,0.0,91,-99.99,,,-99.99,,2013-07-01 12:01:00,
2013-07-01 05:11:00,56.0,54.0,29.83,WSW,250,0.0,2.0,92,-99.99,,,-99.99,,2013-07-01 12:11:00,
2013-07-01 05:21:00,56.0,54.0,29.83,WSW,250,0.0,2.0,92,-99.99,,,-99.99,,2013-07-01 12:21:00,
2013-07-01 05:33:00,56.0,54.0,29.83,WSW,250,0.0,2.0,92,-99.99,,,-99.99,,2013-07-01 12:33:00,
2013-07-01 05:43:00,56.0,54.0,29.83,WSW,250,0.0,0.0,92,-99.99,,,-99.99,,2013-07-01 12:43:00,
2013-07-01 05:53:00,56.0,54.0,29.83,WSW,250,0.0,1.0,92,-99.99,,,-99.99,,2013-07-01 12:53:00,
2013-07-01 06:01:00,56.0,54.0,29.83,WSW,250,0.0,0.0,92,-99.99,,,-99.99,,2013-07-01 13:01:00,
2013-07-01 06:12:00,55.0,53.0,29.83,WSW,250,0.0,1.0,92,-99.99,,,-99.99,,2013-07-01 13:12:00,
2013-07-01 06:23:00,55.0,53.0,29.83,WSW,250,0.0,0.0,92,-99.99,,,-99.99,,2013-07-01 13:23:00,
2013-07-01 06:33:00,55.0,53.0,29.83,WSW,250,0.0,0.0,92,-99.99,,,-99.99,,2013-07-01 13:33:00,
2013-07-01 06:43:00,55.0,53.0,29.83,WSW,250,0.0,0.0,92,-99.99,,,-99.99,,2013-07-01 13:43:00,
2013-07-01 06:53:00,55.0,53.0,29.83,WSW,250,0.0,1.0,92,-99.99,,,-99.99,,2013-07-01 13:53:00,
2013-07-01 07:01:00,55.0,53.0,29.83,NNW,333,0.0,2.0,92,-99.99,,,-99.99,,2013-07-01 14:01:00,
2013-07-01 07:11:00,56.0,54.0,29.83,NNW,333,0.0,1.0,92,-99.99,,,-99.99,,2013-07-01 14:11:00,
2013-07-01 07:22:00,56.0,54.0,29.83,NNW,333,0.0,1.0,92,-99.99,,,-99.99,,2013-07-01 14:22:00,
2013-07-01 07:34:00,56.0,54.0,29.83,NNW,333,0.0,1.0,92,-99.99,,,-99.99,,2013-07-01 14:34:00,
2013-07-01 07:43:00,56.0,54.0,29.83,NNW,333,0.0,1.0,92,-99.99,,,-99.99,,2013-07-01 14:43:00,
2013-07-01 07:52:00,58.0,56.0,29.83,NNW,333,0.0,1.0,92,-99.99,,,-99.99,,2013-07-01 14:52:00,
2013-07-01 08:02:00,58.0,56.0,29.83,NNW,333,0.0,1.0,92,-99.99,,,-99.99,,2013-07-01 15:02:00,
2013-07-01 08:11:00,60.0,57.0,29.83,NNW,333,0.0,1.0,90,-99.99,,,-99.99,,2013-07-01 15:11:00,
2013-07-01 08:23:00,62.0,58.0,29.83,NE,54,0.0,2.0,87,-99.99,,,-99.99,,2013-07-01 15:23:00,
2013-07-01 08:33:00,62.0,58.0,29.83,NE,54,0.0,2.0,87,-99.99,,,-99.99,,2013-07-01 15:33:00,
2013-07-01 08:43:00,65.0,58.0,29.83,WSW,256,0.0,5.0,79,-99.99,,,-99.99,,2013-07-01 15:43:00,
2013-07-01 08:52:00,65.0,58.0,29.83,WSW,256,0.0,5.0,79,-99.99,,,-99.99,,2013-07-01 15:52:00,
2013-07-01 09:01:00,65.0,58.0,29.83,WSW,256,0.0,5.0,79,-99.99,,,-99.99,,2013-07-01 16:01:00,
2013-07-01 09:11:00,69.0,59.0,29.83,North,6,2.0,3.0,70,-99.99,,,-99.99,,2013-07-01 16:11:00,
2013-07-01 09:22:00,70.0,59.0,29.83,North,357,0.0,3.0,67,-99.99,,,-99.99,,2013-07-01 16:22:00,
2013-07-01 09:33:00,71.0,59.0,29.83,SW,234,3.0,5.0,65,-99.99,,,-99.99,,2013-07-01 16:33:00,
2013-07-01 09:44:00,71.0,58.0,29.83,WSW,254,2.0,6.0,64,-99.99,,,-99.99,,2013-07-01 16:44:00,
2013-07-01 09:53:00,71.0,59.0,29.83,WSW,257,2.0,6.0,66,-99.99,,,-99.99,,2013-07-01 16:53:00,
2013-07-01 10:02:00,71.0,59.0,29.83,WSW,257,2.0,6.0,66,-99.99,,,-99.99,,2013-07-01 17:02:00,
2013-07-01 10:12:00,72.0,59.0,29.84,West,271,0.0,4.0,64,-99.99,,,-99.99,,2013-07-01 17:12:00,
2013-07-01 10:23:00,72.0,59.0,29.84,West,271,0.0,4.0,64,-99.99,,,-99.99,,2013-07-01 17:23:00,
2013-07-01 10:33:00,74.0,60.0,29.84,WNW,291,2.0,7.0,61,-99.99,,,-99.99,,2013-07-01 17:33:00,
2013-07-01 10:43:00,76.0,61.0,29.85,West,261,4.0,4.0,59,-99.99,,,-99.99,,2013-07-01 17:43:00,
2013-07-01 10:53:00,76.0,60.0,29.85,West,270,5.0,8.0,58,-99.99,,,-99.99,,2013-07-01 17:53:00,
2013-07-01 11:02:00,76.0,60.0,29.85,West,270,5.0,8.0,58,-99.99,,,-99.99,,2013-07-01 18:02:00,
2013-07-01 11:11:00,76.0,60.0,29.85,West,270,5.0,8.0,58,-99.99,,,-99.99,,2013-07-01 18:11:00,
2013-07-01 11:33:00,73.0,59.0,29.86,SW,224,7.0,14.0,62,-99.99,,,-99.99,,2013-07-01 18:33:00,
2013-07-01 11:43:00,74.0,58.0,29.86,SW,227,5.0,11.0,57,-99.99,,,-99.99,,2013-07-01 18:43:00,
2013-07-01 11:52:00,74.0,58.0,29.86,SW,227,5.0,11.0,57,-99.99,,,-99.99,,2013-07-01 18:52:00,
2013-07-01 12:01:00,74.0,58.0,29.86,SW,227,5.0,11.0,57,-99.99,,,-99.99,,2013-07-01 19:01:00,
2013-07-01 12:21:00,77.0,56.0,29.87,WSW,239,8.0,13.0,49,-99.99,,,-99.99,,2013-07-01 19:21:00,
2013-07-01 12:33:00,77.0,57.0,29.87,SW,232,14.0,14.0,51,-99.99,,,-99.99,,2013-07-01 19:33:00,
2013-07-01 12:52:00,75.0,58.0,29.88,SSW,209,10.0,18.0,55,-99.99,,,-99.99,,2013-07-01 19:52:00,
2013-07-01 13:01:00,75.0,58.0,29.88,WSW,248,10.0,16.0,56,-99.99,,,-99.99,,2013-07-01 20:01:00,
2013-07-01 13:11:00,75.0,58.0,29.88,WSW,248,10.0,16.0,56,-99.99,,,-99.99,,2013-07-01 20:11:00,
2013-07-01 13:21:00,75.0,58.0,29.88,WSW,248,10.0,16.0,56,-99.99,,,-99.99,,2013-07-01 20:21:00,
2013-07-01 13:33:00,73.0,58.0,29.89,SW,229,8.0,16.0,59,-99.99,,,-99.99,,2013-07-01 20:33:00,
2013-07-01 13:43:00,73.0,58.0,29.89,SW,229,8.0,16.0,59,-99.99,,,-99.99,,2013-07-01 20:43:00,
2013-07-01 13:52:00,73.0,58.0,29.89,SW,229,8.0,16.0,59,-99.99,,,-99.99,,2013-07-01 20:52:00,
2013-07-01 14:01:00,72.0,58.0,29.90,SW,219,10.0,15.0,61,-99.99,,,-99.99,,2013-07-01 21:01:00,
2013-07-01 14:11:00,73.0,58.0,29.89,SW,234,10.0,14.0,60,-99.99,,,-99.99,,2013-07-01 21:11:00,
2013-07-01 14:23:00,73.0,58.0,29.89,SW,234,10.0,14.0,60,-99.99,,,-99.99,,2013-07-01 21:23:00,
2013-07-01 14:34:00,73.0,58.0,29.89,SW,234,10.0,14.0,60,-99.99,,,-99.99,,2013-07-01 21:34:00,
2013-07-01 14:43:00,72.0,58.0,29.91,SW,219,12.0,14.0,62,-99.99,,,-99.99,,2013-07-01 21:43:00,
2013-07-01 14:53:00,72.0,58.0,29.91,SW,219,12.0,14.0,62,-99.99,,,-99.99,,2013-07-01 21:53:00,
2013-07-01 15:01:00,72.0,58.0,29.91,SW,219,12.0,14.0,62,-99.99,,,-99.99,,2013-07-01 22:01:00,
2013-07-01 15:11:00,72.0,59.0,29.90,SW,234,10.0,12.0,64,-99.99,,,-99.99,,2013-07-01 22:11:00,
2013-07-01 15:23:00,72.0,59.0,29.90,SW,220,6.0,12.0,64,-99.99,,,-99.99,,2013-07-01 22:23:00,
2013-07-01 15:33:00,72.0,59.0,29.90,SW,220,6.0,12.0,64,-99.99,,,-99.99,,2013-07-01 22:33:00,
2013-07-01 15:42:00,73.0,59.0,29.90,SW,226,5.0,13.0,62,-99.99,,,-99.99,,2013-07-01 22:42:00,
2013-07-01 15:53:00,73.0,59.0,29.90,SW,226,5.0,13.0,62,-99.99,,,-99.99,,2013-07-01 22:53:00,
2013-07-01 16:01:00,74.0,59.0,29.90,SSW,199,5.0,12.0,60,-99.99,,,-99.99,,2013-07-01 23:01:00,
2013-07-01 16:11:00,74.0,59.0,29.90,SSW,199,5.0,12.0,60,-99.99,,,-99.99,,2013-07-01 23:11:00,
2013-07-01 16:22:00,74.0,59.0,29.90,SSW,199,5.0,12.0,60,-99.99,,,-99.99,,2013-07-01 23:22:00,
2013-07-01 16:33:00,73.0,58.0,29.89,WSW,237,3.0,13.0,60,-99.99,,,-99.99,,2013-07-01 23:33:00,
2013-07-01 16:53:00,73.0,58.0,29.88,SW,226,7.0,12.0,60,-99.99,,,-99.99,,2013-07-01 23:53:00,
2013-07-01 17:01:00,72.0,58.0,29.88,SW,222,6.0,12.0,62,-99.99,,,-99.99,,2013-07-02 00:01:00,
2013-07-01 17:33:00,74.0,59.0,29.87,SW,223,6.0,10.0,60,-99.99,,,-99.99,,2013-07-02 00:33:00,
2013-07-01 17:43:00,74.0,59.0,29.87,SW,223,6.0,10.0,60,-99.99,,,-99.99,,2013-07-02 00:43:00,
2013-07-01 17:53:00,74.0,59.0,29.87,SW,223,6.0,10.0,60,-99.99,,,-99.99,,2013-07-02 00:53:00,
2013-07-01 18:01:00,73.0,58.0,29.87,SW,229,5.0,12.0,60,-99.99,,,-99.99,,2013-07-02 01:01:00,
2013-07-01 18:11:00,73.0,58.0,29.87,SW,229,5.0,12.0,60,-99.99,,,-99.99,,2013-07-02 01:11:00,
2013-07-01 18:22:00,73.0,59.0,29.87,SSW,195,7.0,11.0,62,-99.99,,,-99.99,,2013-07-02 01:22:00,
2013-07-01 18:33:00,73.0,59.0,29.87,SSW,195,7.0,11.0,62,-99.99,,,-99.99,,2013-07-02 01:33:00,
2013-07-01 18:43:00,72.0,58.0,29.87,WSW,254,7.0,10.0,62,-99.99,,,-99.99,,2013-07-02 01:43:00,
2013-07-01 18:53:00,72.0,58.0,29.87,WSW,247,6.0,10.0,61,-99.99,,,-99.99,,2013-07-02 01:53:00,
2013-07-01 19:01:00,72.0,58.0,29.87,West,270,1.0,10.0,62,-99.99,,,-99.99,,2013-07-02 02:01:00,
2013-07-01 19:11:00,72.0,58.0,29.87,West,270,1.0,10.0,62,-99.99,,,-99.99,,2013-07-02 02:11:00,
2013-07-01 19:33:00,69.0,57.0,29.87,WSW,258,4.0,7.0,66,-99.99,,,-99.99,,2013-07-02 02:33:00,
2013-07-01 19:43:00,68.0,57.0,29.87,WSW,239,3.0,6.0,68,-99.99,,,-99.99,,2013-07-02 02:43:00,
2013-07-01 19:53:00,67.0,57.0,29.87,SW,227,5.0,8.0,70,-99.99,,,-99.99,,2013-07-02 02:53:00,
2013-07-01 20:01:00,65.0,56.0,29.88,SW,236,3.0,7.0,72,-99.99,,,-99.99,,2013-07-02 03:01:00,
2013-07-01 20:11:00,65.0,56.0,29.88,WSW,241,2.0,7.0,74,-99.99,,,-99.99,,2013-07-02 03:11:00,
2013-07-01 20:23:00,64.0,56.0,29.87,SW,216,2.0,6.0,76,-99.99,,,-99.99,,2013-07-02 03:23:00,
2013-07-01 20:32:00,63.0,56.0,29.87,SW,232,3.0,7.0,78,-99.99,,,-99.99,,2013-07-02 03:32:00,
2013-07-01 20:43:00,63.0,56.0,29.87,SW,232,3.0,7.0,78,-99.99,,,-99.99,,2013-07-02 03:43:00,
2013-07-01 20:53:00,63.0,56.0,29.87,SW,232,3.0,7.0,78,-99.99,,,-99.99,,2013-07-02 03:53:00,
2013-07-01 21:01:00,62.0,56.0,29.86,SW,224,3.0,5.0,80,-99.99,,,-99.99,,2013-07-02 04:01:00,
2013-07-01 21:11:00,62.0,56.0,29.86,SW,224,3.0,5.0,80,-99.99,,,-99.99,,2013-07-02 04:11:00,
2013-07-01 21:22:00,62.0,56.0,29.87,West,261,1.0,6.0,81,-99.99,,,-99.99,,2013-07-02 04:22:00,
2013-07-01 21:32:00,62.0,56.0,29.87,West,261,1.0,6.0,81,-99.99,,,-99.99,,2013-07-02 04:32:00,
2013-07-01 21:42:00,62.0,56.0,29.87,West,261,1.0,6.0,81,-99.99,,,-99.99,,2013-07-02 04:42:00,
2013-07-01 21:53:00,62.0,56.0,29.87,West,261,1.0,6.0,81,-99.99,,,-99.99,,2013-07-02 04:53:00,
2013-07-01 22:11:00,61.0,56.0,29.89,WSW,237,2.0,5.0,83,-99.99,,,-99.99,,2013-07-02 05:11:00,
2013-07-01 22:22:00,61.0,56.0,29.90,WSW,248,3.0,5.0,84,-99.99,,,-99.99,,2013-07-02 05:22:00,
2013-07-01 22:32:00,60.0,55.0,29.90,SW,229,5.0,7.0,84,-99.99,,,-99.99,,2013-07-02 05:32:00,
2013-07-01 22:43:00,60.0,55.0,29.90,West,265,1.0,6.0,85,-99.99,,,-99.99,,2013-07-02 05:43:00,
2013-07-01 22:52:00,60.0,55.0,29.90,West,265,1.0,6.0,85,-99.99,,,-99.99,,2013-07-02 05:52:00,
2013-07-01 23:01:00,59.0,55.0,29.91,WSW,237,1.0,3.0,87,-99.99,,,-99.99,,2013-07-02 06:01:00,
2013-07-01 23:11:00,58.0,54.0,29.91,WSW,250,3.0,3.0,88,-99.99,,,-99.99,,2013-07-02 06:11:00,
2013-07-01 23:23:00,58.0,55.0,29.91,WSW,250,1.0,3.0,89,-99.99,,,-99.99,,2013-07-02 06:23:00,
2013-07-01 23:33:00,58.0,55.0,29.91,WSW,253,0.0,3.0,90,-99.99,,,-99.99,,2013-07-02 06:33:00,
2013-07-01 23:43:00,58.0,55.0,29.91,SW,232,3.0,4.0,90,-99.99,,,-99.99,,2013-07-02 06:43:00,
2013-07-01 23:53:00,57.0,54.0,29.91,West,264,0.0,3.0,91,-99.99,,,-99.99,,2013-07-02 06:53:00,